« Back
NWS Peachtree City, Ga » Text Product » GA Regional Weather Roundup


Printer-friendly Version
Current Version              Previous Versions:   1  2  3  4  5  6  

Regional Weather Roundup

783
ASUS42 KFFC 052303
RWRGA
WEATHER ROUNDUP FOR GEORGIA
NATIONAL WEATHER SERVICE PEACHTREE CITY GA
700 PM EDT SUN JUL 05 2015

NOTE: "FAIR" INDICATES FEW OR NO CLOUDS BELOW 12,000 FEET WITH NO
SIGNIFICANT WEATHER AND/OR OBSTRUCTIONS TO VISIBILITY.

* = USE WITH CAUTION. THE STATIONS MARKED WITH AN ASTERISK MAY NOT
REPORT WEATHER SUCH AS PRECIPITATION, FOG, OR THUNDER AND ARE NOT
QUALITY CONTROLLED BY NWS.

THE REMARK "TC" DENOTES TEMPERATURE READING IN DEGREES CELSIUS.

GAZ001>058-060000-
NORTH GEORGIA

CITY           SKY/WX    TMP DP  RH WIND       PRES   REMARKS
ATLANTA        PTSUNNY   82  64  54 SW12      30.09F
ATHENS         MOSUNNY   82  66  58 SW7       30.08S
CHAMBLEE       MOSUNNY   83  67  58 SW8       30.08F
PEACHTREE CITY MOSUNNY   82  67  60 CALM      30.09F
ROME           MOSUNNY   82  66  58 W6        30.07F
WEST ATLANTA   MOSUNNY   82  67  60 SW12      30.08F
GAINESVILLE    SUNNY     80  63  55 W9G20     30.11S
CARTERSVILLE   MOSUNNY   81  66  60 CALM      30.08F


CITY           SKY/WX    TMP DP  RH WIND       PRES   REMARKS
DALTON*        MOSUNNY   79  70  73 SW5       30.07F
LAWRENCEVILLE* MOSUNNY   82  61  47 W12       30.07F
MARIETTA       MOSUNNY   83  68  60 SW8       30.09F
KENNESAW*      MOSUNNY  N/A N/A N/A W12G17    30.10F
BLAIRSVILLE*     N/A     73  60  64 CALM      30.13S
$$

GAZ059>098-102>109-060000-
CENTRAL GEORGIA

CITY           SKY/WX    TMP DP  RH WIND       PRES   REMARKS
AUGUSTA-BUSH   PTSUNNY   80  71  74 S13G22    30.08R
AUGUSTA-DANIEL PTSUNNY   84  70  62 S16       30.10R
COLUMBUS       MOSUNNY   81  69  67 W9        30.08F
MACON          MOSUNNY   84  68  58 SW5       30.08R
ROBINS AFB     MOSUNNY   85  70  60 SW9       30.07S


CITY           SKY/WX    TMP DP  RH WIND       PRES   REMARKS
LAGRANGE*      MOSUNNY   85  76  74 SW6       30.08F HX  95
SYLVANIA*      LGT RAIN  75  74  97 S3        30.13F
MILLEDGEVILLE* MOSUNNY   86  66  51 CALM      30.08S
$$

GAZ099>101-110>166-060000-
SOUTH GEORGIA

CITY           SKY/WX    TMP DP  RH WIND       PRES   REMARKS
SAVANNAH       CLOUDY    72  69  90 S10       30.13F
VALDOSTA       CLOUDY    76  72  87 CALM      30.16R
ALMA           CLOUDY    76  72  87 SE6       30.13R
ST SIMONS      LGT RAIN  73  71  93 E6        30.16F
FT STEWART     CLOUDY    75  70  84 SE9       30.11F
ALBANY         PTSUNNY   80  71  74 SW6       30.13S
HUNTER AFB     CLOUDY    72  72 100 SE5       30.11F
MOODY AFB      CLOUDY    77  71  81 S5        30.14R
BRUNSWICK      CLOUDY    73  72  94 NE3       30.16S


CITY           SKY/WX    TMP DP  RH WIND       PRES   REMARKS
BAINBRIDGE*    CLOUDY    79  72  78 W5        30.13F
MOULTRIE*      PTSUNNY   73  70  88 W3        30.15R
VIDALIA*       RAIN      79  72  78 S5        30.12S
WAYCROSS*      CLOUDY    76  76  99 SE5       30.14R
DOUGLAS*       CLOUDY    79  73  83 SE3       30.15R
$$



USA.gov is the U.S. government's official web portal to all federal, state and local government web resources and services.